Location: Binningen
(47.7924°N, 8.7261°E)
Time: 18:38:01
(UTC+00:00)

Cosmos 1461 - Pass Details

Date: 17 May 2021
Orbit: 510 x 653 km, 65.0° (Epoch: 22 June)

Event Time Altitude Azimuth Distance (km) Brightness Sun altitude
Rises 21:54:21 0° 237° (WSW) 2,966 6.4 -19.9°
Reaches altitude 10° 21:56:46 10° 244° (WSW) 2,054 5.7 -20.0°
Maximum altitude 22:01:13 42° 316° (NW) 926 4.4 -20.3°
Drops below altitude 10° 22:05:35 10° 27° (NNE) 2,019 6.3 -20.5°
Sets 22:07:56 0° 35° (NE) 2,909 7.0 -20.7°
